PLEIADES NEO 3

Last updated on Thu Oct 30 2025 00:02:32 GMT+0000 (Coordinated Universal Time)

1 48268U 21034A 25302.35963598 .00001746 00000+0 22838-3 0 9991 2 48268 97.8951 15.4372 0001289 94.0642 266.0718 14.81689778243475
UTC large
Height (km)
Speed (km/s)
/
Latitude / Longitude
Inclination (degrees)
Orbital Period (minutes)
Azimuth
Elevation
Range (km)
Doppler Factor

Next 0 passes for location: London (51.5072 / 0.1276)

Sorry there are no passes over London.